This demonstration page uses our WeatherBlox Daily Observations layout. Learn more.

Left ArrowRight Arrow

Hourly Observations for March 8, 2021

Temp ( °F °C ) Dew Point ( °F °C ) Humidity (%) Winds ( mph kmh ) Pressure ( in mb ) Visibility ( mi km ) Precip ( " mm )
12:53 am 00:53 Clear 36 2.2 27 -2.8 70 70 Calm 30.44 1031 10 16 0.00 0.00
1:53 am 01:53 Clear 37 2.8 28 -2.2 70 70 Calm 30.45 1031 10 16 0.00 0.00
2:53 am 02:53 Clear 35 1.7 28 -2.2 76 76 Calm 30.45 1031 10 16 0.00 0.00
3:53 am 03:53 Clear 33 0.6 27 -2.8 78 78 Calm 30.45 1031 10 16 0.00 0.00
4:53 am 04:53 Clear 32 0 27 -2.8 82 82 Calm 30.47 1032 10 16 0.00 0.00
5:53 am 05:53 Clear 30 -1.1 28 -2.2 92 92 Calm 30.49 1033 10 16 0.00 0.00
6:53 am 06:53 Clear 30 -1.1 27 -2.8 88 88 Calm 30.51 1033 10 16 0.00 0.00
7:53 am 07:53 Sunny 33 0.6 31 -0.6 92 92 Calm 30.54 1034 10 16 0.00 0.00
8:53 am 08:53 Sunny 43 6.1 29 -1.7 58 58 E 3 6 30.56 1035 10 16 0.00 0.00
9:53 am 09:53 Sunny 51 10.6 25 -3.9 36 36 NE 3 6 30.57 1035 10 16 0.00 0.00
10:53 am 10:53 Sunny 57 13.9 18 -7.8 22 22 Calm 30.57 1035 10 16 0.00 0.00
11:53 am 11:53 Sunny 60 15.6 15 -9.4 17 17 S 3 6 30.55 1035 10 16 0.00 0.00
12:53 pm 12:53 Sunny 63 17.2 18 -7.8 17 17 W 5 7 30.53 1034 10 16 0.00 0.00
1:53 pm 13:53 Sunny 65 18.3 13 -10.6 13 13 NW 3 6 30.50 1033 10 16 0.00 0.00
2:53 pm 14:53 Sunny 68 20 14 -10 12 12 WNW 8 13 30.47 1032 10 16 0.00 0.00
3:53 pm 15:53 Sunny 68 20 10 -12.2 10 10 WSW 9 15 30.47 1032 10 16 0.00 0.00
4:53 pm 16:53 Sunny 68 20 10 -12.2 10 10 Calm 30.46 1032 10 16 0.00 0.00
5:53 pm 17:53 Sunny 68 20 12 -11.1 11 11 W 3 6 30.46 1032 10 16 0.00 0.00
6:53 pm 18:53 Clear 63 17.2 19 -7.2 18 18 SSE 5 7 30.48 1032 10 16 0.00 0.00
7:53 pm 19:53 Clear 53 11.7 25 -3.9 34 34 Calm 30.49 1033 10 16 0.00 0.00
8:53 pm 20:53 Clear 50 10 26 -3.3 39 39 Calm 30.49 1033 10 16 0.00 0.00
9:53 pm 21:53 Clear 46 7.8 29 -1.7 51 51 Calm 30.49 1033 10 16 0.00 0.00
10:53 pm 22:53 Clear 43 6.1 30 -1.1 60 60 Calm 30.50 1033 10 16 0.00 0.00
11:53 pm 23:53 Clear 41 5 29 -1.7 62 62 Calm 30.50 1033 10 16 0.00 0.00

Powered by AerisWeather